Regional Weather Roundup
Issued by NWS

Home | Current Version | Previous Version | Graphics & Text | Print | Product List | Glossary On
Versions: 1 2 3 4 5 6 7 8 9 10 11 12 13 14 15 16 17 18 19 20 21 22 23 24 25 26 27 28 29 30 31 32 33 34 35 36 37 38 39 40 41 42 43 44 45 46 47 48 49 50
000
ASUS45 KBOI 230310
RWRID

IDAHO REGIONAL WEATHER ROUNDUP
NATIONAL WEATHER SERVICE BOISE ID
900 PM MDT SAT JUL 22 2017

NOTE: "FAIR" INDICATES FEW OR NO CLOUDS BELOW 12000 FEET
WITH NO SIGNIFICANT WEATHER AND/OR OBSTRUCTIONS TO VISIBILITY

IDZ012-014-230400-
SOUTHWEST IDAHO


CITY           SKY/WX    TMP DP  RH WIND       PRES   REMARKS
BOISE          CLEAR     87  37  17 W6        30.00S
CALDWELL       CLEAR     87  45  23 SW5       29.98S
$$

IDZ016-017-230400-
SOUTHCENTRAL IDAHO


CITY           SKY/WX    TMP DP  RH WIND       PRES   REMARKS
BURLEY         CLEAR     72  49  44 SW5       30.07S
JEROME         CLEAR     82  40  22 SW6       30.08R
TWIN FALLS     CLEAR     75  44  33 W9        30.08S
$$

IDZ019>023-230400-
SOUTHEAST IDAHO


CITY           SKY/WX    TMP DP  RH WIND       PRES   REMARKS
IDAHO FALLS    CLEAR     70  56  61 W3        30.13S
POCATELLO      CLEAR     78  37  22 S7        30.11R
REXBURG        CLEAR     79  42  26 CALM      30.14R
$$

IDZ006-010-011-018-031-032-230400-
CENTRAL IDAHO MOUNTAINS


CITY           SKY/WX    TMP DP  RH WIND       PRES   REMARKS
MCCALL         CLEAR     79  36  21 NW8       30.16
HAILEY         CLEAR     75  45  33 SE6       30.16R
STANLEY          N/A     73  35  25 CALM      30.24R
SALMON         NOT AVBL
CHALLIS        CLEAR     75  39  27 NW6       30.12R
$$

IDZ002-004-006-007-026-230400-
NORTHERN IDAHO


CITY           SKY/WX    TMP DP  RH WIND       PRES   REMARKS
LEWISTON       CLEAR     89  46  22 N6        30.00S
LOWELL           N/A     74  55  51 CALM      30.01
COEUR D`ALENE  CLEAR     80  51  36 S5        30.06F
MULLAN PASS    CLEAR     66  43  43 NW3       30.29S
$$



USA.gov is the U.S. government's official web portal to all federal, state and local government web resources and services.